When you browse on this site, cookies collect data to enhance your experience and personalize the content and advertising you see.
Visit our Privacy Policy to learn more. By continuing to use the site, you agree to this use of cookies and data.
  • In Hungary
  • List of Countries
  • For 7 days
  • Water Temperature
  • Weather Map
  • News
  • Weather Widgets
  • user-avatar
    Login

    Hourly Weather Mihaylovka Vtoraya

    Today, 6 June, Saturday

    Time Temperature Precipitation Wind Pressure Humidity
    00:00 +16°C° 0.9 mm 5 mps 753 mmHg 75%
    01:00 +15°C° 0.9 mm 4 mps 753 mmHg 85%
    02:00 +15°C° 0.7 mm 5 mps 753 mmHg 79%
    03:00 +15°C° 0.7 mm 6 mps 753 mmHg 73%
    04:00 +15°C° 0 mm 6 mps 753 mmHg 60%
    05:00 +15°C° 0.3 mm 6 mps 753 mmHg 62%
    06:00 +15°C° 0.3 mm 6 mps 753 mmHg 63%
    07:00 +15°C° 0.3 mm 5 mps 753 mmHg 64%
    08:00 +15°C° 0.3 mm 6 mps 753 mmHg 66%
    09:00 +16°C° 0.3 mm 6 mps 753 mmHg 67%
    10:00 +16°C° 0.3 mm 7 mps 753 mmHg 68%
    11:00 +18°C° 0.2 mm 7 mps 753 mmHg 66%
    12:00 +21°C° 0.2 mm 7 mps 753 mmHg 64%
    13:00 +23°C° 0.2 mm 7 mps 753 mmHg 62%
    14:00 +23°C° 1.7 mm 6 mps 753 mmHg 64%
    15:00 +23°C° 1.7 mm 5 mps 753 mmHg 65%
    16:00 +23°C° 1.7 mm 4 mps 753 mmHg 67%
    17:00 +22°C° 1.2 mm 3 mps 753 mmHg 71%
    18:00 +21°C° 1.2 mm 3 mps 753 mmHg 75%
    19:00 +21°C° 1.2 mm 2 mps 753 mmHg 78%
    20:00 +20°C° 0.5 mm 2 mps 754 mmHg 81%
    21:00 +19°C° 0.5 mm 1 mps 754 mmHg 83%
    22:00 +18°C° 0.5 mm 1 mps 754 mmHg 86%
    23:00 +18°C° 0 mm 1 mps 754 mmHg 86%

    Tomorrow, 7 June, Sunday

    Time Temperature Precipitation Wind Pressure Humidity
    00:00 +16°C° 0 mm 1 mps 754 mmHg 87%
    01:00 +16°C° 0 mm 2 mps 754 mmHg 88%
    02:00 +16°C° 0 mm 2 mps 754 mmHg 88%
    03:00 +16°C° 0 mm 2 mps 755 mmHg 88%
    04:00 +15°C° 0 mm 2 mps 755 mmHg 88%
    05:00 +16°C° 0.1 mm 2 mps 755 mmHg 86%
    06:00 +17°C° 0.1 mm 3 mps 755 mmHg 84%
    07:00 +18°C° 0.1 mm 3 mps 755 mmHg 82%
    08:00 +18°C° 1.2 mm 4 mps 755 mmHg 83%
    09:00 +19°C° 1.2 mm 5 mps 755 mmHg 83%
    10:00 +19°C° 1.2 mm 5 mps 755 mmHg 84%
    11:00 +19°C° 0.9 mm 5 mps 755 mmHg 85%
    12:00 +17°C° 0.9 mm 5 mps 755 mmHg 85%
    13:00 +18°C° 0.9 mm 4 mps 755 mmHg 86%
    14:00 +18°C° 0.3 mm 4 mps 755 mmHg 86%
    15:00 +18°C° 0.3 mm 4 mps 755 mmHg 86%
    16:00 +18°C° 0.3 mm 4 mps 755 mmHg 86%
    17:00 +18°C° 0 mm 4 mps 755 mmHg 87%
    18:00 +18°C° 0 mm 4 mps 755 mmHg 87%
    19:00 +18°C° 0 mm 4 mps 755 mmHg 88%
    20:00 +17°C° 0 mm 3 mps 755 mmHg 89%
    21:00 +17°C° 0 mm 3 mps 755 mmHg 91%
    22:00 +16°C° 0 mm 3 mps 755 mmHg 92%
    23:00 +16°C° 0.1 mm 3 mps 755 mmHg 93%

    Day after tomorrow, 8 June, Monday

    Time Temperature Precipitation Wind Pressure Humidity
    00:00 +16°C° 0.1 mm 3 mps 755 mmHg 93%
    01:00 +16°C° 0.1 mm 3 mps 754 mmHg 94%
    02:00 +16°C° 0.3 mm 3 mps 754 mmHg 93%
    03:00 +16°C° 0.3 mm 3 mps 754 mmHg 93%
    04:00 +16°C° 0.3 mm 3 mps 755 mmHg 92%
    05:00 +15°C° 0.2 mm 4 mps 755 mmHg 90%
    06:00 +15°C° 0.2 mm 4 mps 755 mmHg 87%
    07:00 +15°C° 0.2 mm 5 mps 755 mmHg 85%
    08:00 +15°C° 0.1 mm 5 mps 755 mmHg 82%
    09:00 +16°C° 0.1 mm 5 mps 755 mmHg 79%
    10:00 +16°C° 0.1 mm 6 mps 755 mmHg 76%
    11:00 +19°C° 0 mm 6 mps 755 mmHg 70%
    12:00 +20°C° 0 mm 7 mps 755 mmHg 64%
    13:00 +22°C° 0 mm 8 mps 755 mmHg 58%
    14:00 +22°C° 0 mm 7 mps 755 mmHg 57%
    15:00 +22°C° 0 mm 6 mps 755 mmHg 57%
    16:00 +23°C° 0 mm 5 mps 755 mmHg 56%
    17:00 +22°C° 0 mm 5 mps 755 mmHg 58%
    18:00 +22°C° 0 mm 5 mps 755 mmHg 60%
    19:00 +22°C° 0 mm 5 mps 755 mmHg 62%
    20:00 +21°C° 0 mm 5 mps 755 mmHg 62%
    21:00 +20°C° 0 mm 5 mps 755 mmHg 63%
    22:00 +19°C° 0 mm 5 mps 756 mmHg 63%
    23:00 +19°C° 0 mm 5 mps 756 mmHg 63%

    9 June, Tuesday

    Time Temperature Precipitation Wind Pressure Humidity
    00:00 +17°C° 0 mm 5 mps 756 mmHg 63%
    01:00 +16°C° 0 mm 5 mps 756 mmHg 64%
    02:00 +16°C° 0 mm 5 mps 756 mmHg 62%
    03:00 +16°C° 0 mm 5 mps 756 mmHg 61%
    04:00 +16°C° 0 mm 5 mps 756 mmHg 60%
    05:00 +17°C° 0 mm 6 mps 757 mmHg 61%
    06:00 +17°C° 0 mm 6 mps 757 mmHg 62%
    07:00 +18°C° 0 mm 7 mps 757 mmHg 63%
    08:00 +21°C° 0 mm 7 mps 757 mmHg 60%
    09:00 +22°C° 0 mm 7 mps 758 mmHg 56%
    10:00 +24°C° 0 mm 7 mps 758 mmHg 53%
    11:00 +24°C° 0 mm 7 mps 758 mmHg 51%
    12:00 +26°C° 0 mm 7 mps 758 mmHg 49%
    13:00 +27°C° 0 mm 7 mps 758 mmHg 47%
    14:00 +26°C° 0.1 mm 6 mps 758 mmHg 51%
    15:00 +25°C° 0.1 mm 5 mps 758 mmHg 56%
    16:00 +23°C° 0.1 mm 4 mps 758 mmHg 60%
    17:00 +22°C° 0.1 mm 4 mps 758 mmHg 63%
    18:00 +22°C° 0.1 mm 4 mps 758 mmHg 65%
    19:00 +21°C° 0.1 mm 4 mps 758 mmHg 68%
    20:00 +20°C° 0 mm 4 mps 758 mmHg 70%
    21:00 +19°C° 0 mm 4 mps 758 mmHg 71%
    22:00 +18°C° 0 mm 4 mps 758 mmHg 73%
    23:00 +18°C° 0 mm 4 mps 758 mmHg 72%

    10 June, Wednesday

    Time Temperature Precipitation Wind Pressure Humidity
    00:00 +18°C° 0 mm 4 mps 758 mmHg 71%
    01:00 +17°C° 0 mm 4 mps 758 mmHg 70%
    02:00 +17°C° 0 mm 4 mps 757 mmHg 68%
    03:00 +18°C° 0 mm 4 mps 757 mmHg 66%
    04:00 +17°C° 0 mm 5 mps 757 mmHg 64%
    05:00 +19°C° 0 mm 5 mps 757 mmHg 63%
    06:00 +19°C° 0 mm 6 mps 758 mmHg 62%
    07:00 +20°C° 0 mm 6 mps 758 mmHg 61%
    08:00 +22°C° 0 mm 6 mps 758 mmHg 57%
    09:00 +24°C° 0 mm 7 mps 758 mmHg 53%
    10:00 +27°C° 0 mm 7 mps 758 mmHg 50%
    11:00 +28°C° 0 mm 7 mps 758 mmHg 47%
    12:00 +29°C° 0 mm 7 mps 758 mmHg 45%
    13:00 +30°C° 0 mm 6 mps 758 mmHg 43%
    14:00 +30°C° 0 mm 6 mps 758 mmHg 43%
    15:00 +30°C° 0 mm 6 mps 758 mmHg 44%
    16:00 +32°C° 0 mm 6 mps 758 mmHg 45%
    17:00 +29°C° 0 mm 5 mps 758 mmHg 50%
    18:00 +28°C° 0 mm 5 mps 757 mmHg 55%
    19:00 +27°C° 0 mm 5 mps 757 mmHg 60%
    20:00 +26°C° 0 mm 5 mps 757 mmHg 60%
    21:00 +25°C° 0 mm 4 mps 757 mmHg 60%
    22:00 +22°C° 0 mm 4 mps 757 mmHg 61%
    23:00 +22°C° 0.3 mm 5 mps 757 mmHg 61%

    11 June, Thursday

    Time Temperature Precipitation Wind Pressure Humidity
    00:00 +22°C° 0.3 mm 5 mps 758 mmHg 62%
    01:00 +21°C° 0.3 mm 5 mps 758 mmHg 63%
    02:00 +21°C° 0 mm 5 mps 757 mmHg 62%
    03:00 +21°C° 0 mm 4 mps 757 mmHg 62%
    04:00 +20°C° 0 mm 3 mps 757 mmHg 61%
    05:00 +21°C° 0 mm 3 mps 757 mmHg 61%
    06:00 +22°C° 0 mm 3 mps 758 mmHg 61%
    07:00 +24°C° 0 mm 3 mps 758 mmHg 61%
    08:00 +26°C° 0 mm 4 mps 758 mmHg 57%
    09:00 +27°C° 0 mm 4 mps 758 mmHg 53%
    10:00 +29°C° 0 mm 4 mps 758 mmHg 50%
    11:00 +30°C° 0 mm 4 mps 757 mmHg 46%
    12:00 +32°C° 0 mm 4 mps 757 mmHg 42%
    13:00 +33°C° 0 mm 4 mps 757 mmHg 39%
    14:00 +33°C° 0 mm 3 mps 757 mmHg 39%
    15:00 +33°C° 0 mm 3 mps 757 mmHg 39%
    16:00 +33°C° 0 mm 3 mps 756 mmHg 40%
    17:00 +31°C° 0 mm 3 mps 756 mmHg 43%
    18:00 +30°C° 0 mm 2 mps 756 mmHg 47%
    19:00 +29°C° 0 mm 1 mps 756 mmHg 51%
    20:00 +28°C° 0 mm 2 mps 756 mmHg 51%
    21:00 +27°C° 0 mm 2 mps 756 mmHg 51%
    22:00 +25°C° 0 mm 2 mps 756 mmHg 51%
    23:00 +24°C° 0 mm 2 mps 756 mmHg 53%
    Show more